Regional Weather Roundup
Issued by NWS

Home | Current Version | Previous Version | Graphics & Text | Print | Product List | Glossary On
Versions: 1 2 3 4 5 6 7 8 9 10 11 12 13 14 15 16 17 18 19 20 21 22 23 24 25 26 27 28 29 30 31 32 33 34 35 36 37 38 39 40 41 42 43 44 45 46 47 48 49 50
392
ASUS45 KCYS 231010
RWRWY

WYOMING REGIONAL WEATHER ROUNDUP
NATIONAL WEATHER SERVICE CHEYENNE WY
400 AM MDT WED MAY 23 2018

NOTE:  "FAIR" INDICATES FEW OR NO CLOUDS BELOW 12,000 FEET
WITH NO SIGNIFICANT WEATHER AND/OR OBSTRUCTIONS TO VISIBILITY.

WYZ001-231100-
YELLOWSTONE NATIONAL PARK

CITY           SKY/WX    TMP DP  RH WIND       PRES   REMARKS
LK YELLOWSTONE   N/A     40  39  97 CALM      30.07F
W YELLOWSTONE  NOT AVBL

$$
WYZ002>013-054>058-071-098>099-231100-
NORTHERN WYOMING

CITY           SKY/WX    TMP DP  RH WIND       PRES   REMARKS
JACKSON        RAIN      46  45  96 MISG      30.03R
CODY           NOT AVBL
GREYBULL       LGT RAIN  55  54  96 NW6       29.92F
WORLAND        LGT RAIN  54  54 100 NW3       29.93F
SHERIDAN       CLOUDY    55  54  96 NW8       29.92F
BUFFALO        FAIR      55  47  74 W7        29.92F
GILLETTE       CLOUDY    52  51  97 CALM      29.93S
NEWCASTLE      FAIR      50  50 100 S12       29.93R

$$
WYZ014>020-022>026-101>103-231100-
CENTRAL WYOMING

CITY           SKY/WX    TMP DP  RH WIND       PRES   REMARKS
BIG PINEY      CLOUDY    44  43  96 E8        30.04F
PINEDALE       LGT RAIN  43  43 100 CALM      30.06F
DUBOIS         DRIZZLE   37  36  93 NW6       30.04F WCI  33
LANDER         FOG       44  43  96 NW6       29.97F VSB 1
RIVERTON       CLOUDY    48  46  93 W6        29.99S
CASPER         CLOUDY    52  51  97 SW8       29.97S
DOUGLAS        FAIR      49  49 100 S3        29.98R

$$
WYZ021-027>030-104>119-231100-
SOUTHERN WYOMING

CITY           SKY/WX    TMP DP  RH WIND       PRES   REMARKS
EVANSTON       FAIR      42  39  89 SE5       30.04S
KEMMERER       FAIR      41  37  87 W3        30.05S
FORT BRIDGER   FAIR      43  41  91 SW7       30.07F
ROCK SPRINGS   FAIR      41  39  93 S5        30.04S
DIXON          FAIR      37  35  90 CALM      30.09R
RAWLINS        FAIR      37  35  92 CALM      30.07R
SARATOGA       FAIR      41  41 100 S13       30.07F
LARAMIE        FAIR      39  38  96 S13       30.07R WCI  31
CHEYENNE       FAIR      48  43  82 W14       30.01F
TORRINGTON     FAIR      52  52 100 CALM      29.95R
PINE BLUFFS    FAIR      46  46 100 SE7       30.00R

$$




USA.gov is the U.S. government's official web portal to all federal, state and local government web resources and services.